OPS 4682 DEB, 38408

Orbit data source: Space-Track

OPS 4682 DEB, 38408 is space debris in LEO originally from a launch on Sat, 03 Apr 1965 UTC launched from the Air Force Western Test Range (AFWTR). Debris objects in space refer to the collection of defunct objects orbiting the Earth. Examples of debris include non-operational satellites, rocket bodies, and fragments generated from explosions, collisions, or faulty payload assembly.

Loading next visibility...
Identifier
38408, 1965-027DM
Orbit
LEO
Country
Flag of USUS
Related business
Manufacturer
Unknown
Mission
Spacecraft
Bus & Motor
Unknown
Mass
Unknown
Launch date (UTC)
1965-04-03 (61 years ago)
Launch vehicle
Unknown
Launch site
Air Force Western Test Range (AFWTR)
Object type
Payload
Rocket body
Debris
Shape & HBR
Unknown shape, 0.1 m
Radar Cross Section
Small (<0.1 m²)

Expand to show TLE details & history
Last TLE update: 3 days ago

TLE from 3 days ago
0 OPS 4682 DEB
1 38408U 65027DM  26262.03438942 -.00000438  00000-0 -14288-2 0  9996
2 38408  90.2956  17.9410 0041480 276.6164  83.0239 13.02207135617426
Epoch: 2026-09-19T00:49Z
TLE epoch observation values (Epoch: 2026-09-19T00:49:31.245Z)
Latitude
-0.00001°
Longitude
7.61209°
Altitude
1,252.622 km
Speed
7.231 km/s
True Right ascension
01h 11m 45s
True Declination
0° 00' 00"
Sunlit
Object was in full shadow at epoch
Visualization orbit readout
Latitude
Unknown
Longitude
Unknown
Altitude
Unknown
Speed
Unknown
Apparent Right ascension
Unknown
Apparent Declination
Unknown
Sunlit
N/A
Visualization observer readout
Local Sidereal Time
09:57:20
Azimuth
Unknown
Elevation
Unknown
Doppler factor
Unknown
Orbital elements
Apogee altitude
1,282.219 km
Perigee altitude
1,218.931 km
Semi-major axis
7,628.712 km
Eccentricity
0.00415
Inclination
90.2956°
RAAN
17.941°
Arg. of periapsis
276.6164°
True anomaly
83.496°
Mean anomaly
83.0239°
Eccentric anomaly
83.25992°
Mean motion
3.25736 °/min
Orbital period
110.52 mins
BSTAR
-0.0014288
Loading maneuver chart data...
Computing Atmospheric mass density...
Loading historical data...
Loading historical data...
Loading historical data...
Loading historical data...
Loading historical data...
Loading historical data...
Loading historical data...

Documentation

Showing up to 5 results
|